Wind_Speed
39 38 36 35 34 33 32 31 31 30 30 30 29 28 26 25 24 23 22 22 22 22 21 21 20 20 19 19 18 18 17 17 17 17 17 17 17 17 16 16 16 16 15 15 14 14 14 14 14 14 13 13 12 12 11 11 10 10 9 8 8 8 9 10 10 11 11 11 12 11 11 11 11 12 11 11 12 12 12 12 12 12 11 11 10 9 8 9
41 40 38 37 35 34 33 33 32 32 31 31 30 29 27 26 25 24 23 23 23 23 23 22 21 21 20 20 19 19 19 18 18 18 18 17 17 17 17 17 16 16 15 15 15 15 14 14 14 13 13 13 13 12 12 11 11 10 10 10 10 10 10 10 11 11 11 11 12 12 12 12 12 12 11 11 12 12 12 12 12 13 12 12 11 10 10 10
43 42 40 39 37 36 35 34 33 33 33 32 31 30 29 28 26 25 25 25 25 25 24 24 23 22 22 21 21 20 20 20 19 19 19 18 18 18 17 17 17 16 16 15 15 15 14 14 14 14 14 13 13 13 12 12 11 11 11 11 11 12 11 11 11 11 11 11 12 13 13 13 13 13 13 12 12 12 13 13 13 13 13 13 12 12 11 11
45 44 42 41 39 38 37 36 35 35 34 33 33 31 31 29 28 27 27 26 26 26 26 25 25 24 23 22 22 22 21 21 20 20 19 19 19 19 18 18 18 17 16 16 15 15 15 14 14 14 14 13 13 13 12 12 12 12 13 13 13 13 13 12 12 12 12 12 13 13 14 14 13 13 13 13 13 13 13 13 13 13 13 13 13 13 12 12
46 45 44 42 41 40 38 37 37 36 36 35 34 33 32 31 30 29 28 28 28 28 27 27 26 25 24 24 23 23 22 22 21 20 20 20 20 19 19 19 18 18 17 16 16 16 16 15 15 14 14 13 13 13 13 13 14 14 14 14 14 14 14 13 13 13 13 13 14 14 14 14 14 13 13 13 14 14 13 14 14 13 13 13 14 14 14 13
47 46 45 44 43 41 40 39 39 38 38 37 36 35 34 33 32 31 30 30 30 30 29 29 28 27 26 25 25 24 23 23 22 21 21 21 20 20 19 19 19 18 17 17 17 16 16 15 14 14 14 14 14 13 14 14 15 15 15 15 15 14 14 14 14 14 14 14 14 14 14 14 14 14 14 14 14 14 14 14 14 14 14 13 14 15 15 15
47 47 46 45 44 43 42 41 40 40 39 39 38 38 36 35 34 33 32 32 32 32 31 31 30 29 27 26 26 25 25 24 23 22 22 21 21 20 20 20 19 18 17 17 17 16 15 15 14 14 14 14 14 14 15 15 16 16 16 15 15 14 14 14 14 14 15 15 15 15 15 15 15 14 15 15 15 15 14 14 14 15 15 14 14 15 16 16
46 46 46 46 45 44 43 42 42 42 41 41 40 40 39 37 36 35 34 34 34 34 33 33 32 30 29 28 28 27 26 25 24 24 23 23 22 22 21 20 20 19 18 17 17 16 15 15 14 15 15 15 15 15 15 16 16 16 15 15 15 14 14 14 14 14 15 16 16 15 15 15 16 15 16 16 16 15 15 14 14 15 16 16 16 16 17 17
44 45 45 45 45 44 44 43 43 43 43 42 42 41 41 40 38 37 36 36 36 36 35 34 33 32 31 30 29 29 28 27 26 25 24 24 23 23 22 21 20 19 19 18 17 16 15 15 14 14 15 14 14 14 15 16 16 16 15 14 14 14 15 15 15 15 15 16 16 16 15 15 16 16 17 18 16 15 15 15 15 15 16 17 17 18 18 18
43 44 44 44 44 44 43 43 43 44 44 44 44 43 42 41 40 39 38 37 38 38 37 36 35 34 33 32 31 31 30 29 28 27 26 25 24 24 23 22 21 20 19 18 18 17 16 15 14 14 14 14 14 14 14 15 15 16 15 14 14 15 16 17 16 15 16 17 17 16 15 15 16 17 18 19 17 16 16 16 16 16 17 18 18 19 19 20
42 43 44 44 44 43 43 43 43 43 44 44 45 45 44 43 42 41 40 39 39 39 39 38 37 36 35 34 33 33 31 31 30 29 27 26 26 25 24 23 22 21 20 20 19 18 17 16 15 15 14 14 14 14 13 14 15 15 15 15 15 16 17 17 17 16 17 18 18 17 16 16 17 18 20 19 18 18 17 17 18 18 18 18 18 19 19 20
40 41 42 43 44 44 43 43 42 43 43 44 45 45 45 45 44 43 42 41 41 41 41 40 39 38 37 36 35 35 33 32 31 30 29 28 27 26 25 25 24 23 22 22 21 20 19 17 17 16 15 15 15 14 14 14 14 14 15 16 16 16 17 18 18 18 18 19 19 19 17 17 19 19 20 20 19 20 19 19 19 19 19 19 19 19 19 20
38 40 41 42 43 44 44 44 43 43 43 43 44 45 46 46 45 45 44 43 43 43 43 42 41 40 39 37 37 36 35 34 32 32 31 30 29 27 27 26 25 25 24 23 22 21 20 19 19 18 17 17 16 16 15 15 15 15 16 17 17 17 17 18 18 18 19 20 21 21 17 18 22 21 20 22 21 21 20 20 20 20 21 20 20 20 20 21
38 39 40 41 42 43 44 45 45 44 44 44 44 45 46 46 46 46 45 45 44 44 44 44 43 42 41 39 38 37 36 35 34 33 32 31 30 29 29 28 27 26 26 25 24 23 22 22 21 20 19 19 18 17 17 16 16 17 17 18 18 18 17 18 18 19 21 22 22 23 19 18 23 24 22 23 23 22 22 21 21 21 22 22 22 21 21 21
39 39 39 40 41 42 43 44 45 46 46 46 45 46 46 47 47 47 47 46 46 46 46 46 45 44 43 41 40 39 38 37 36 35 34 32 31 31 30 29 29 28 27 27 26 25 25 24 23 22 21 21 20 20 19 19 19 19 20 19 19 18 18 18 19 20 22 23 23 25 22 19 23 26 25 24 24 24 23 23 23 23 23 23 23 23 23 23
40 40 40 40 40 41 42 43 45 46 47 47 47 47 47 48 48 48 48 47 47 47 47 47 47 46 45 43 42 40 39 38 37 36 35 34 33 32 31 31 30 30 29 29 28 27 27 26 25 25 24 23 22 21 21 21 21 23 23 21 19 19 19 19 20 22 23 24 25 26 25 21 23 27 27 26 26 25 25 24 24 23 24 24 24 24 24 24
42 42 41 40 40 40 41 42 43 44 46 47 48 49 49 49 49 49 49 48 48 48 48 48 48 48 47 45 44 42 41 40 39 38 37 36 35 34 33 32 32 32 31 30 30 29 29 28 27 26 25 24 23 24 24 24 24 25 24 22 21 21 21 21 22 24 25 26 27 27 26 23 24 27 27 27 27 27 26 26 25 24 24 25 26 25 25 26
44 43 43 42 41 41 41 41 42 43 44 46 48 49 50 50 50 50 50 50 50 49 49 49 50 50 48 47 45 44 42 41 41 40 39 38 36 35 35 35 34 33 33 32 32 31 31 30 29 27 26 25 25 27 27 25 26 26 25 24 23 23 23 22 23 25 27 28 29 29 27 25 25 26 27 28 28 27 27 27 27 25 25 26 27 26 26 27
47 45 45 44 43 42 42 42 42 43 43 44 46 48 50 51 51 51 51 51 51 50 50 50 51 51 50 48 47 46 45 44 43 42 41 40 38 38 37 36 36 35 34 34 33 33 32 31 30 29 27 27 29 29 28 27 27 27 27 26 25 25 24 24 26 28 29 30 30 30 30 27 24 25 28 29 28 27 27 28 28 27 26 27 27 27 27 27
49 49 47 46 45 44 43 43 43 43 43 44 45 46 48 50 52 52 53 52 51 51 51 51 52 52 52 51 49 48 47 46 45 44 43 42 41 40 39 38 37 37 36 36 35 35 34 33 31 29 29 30 31 29 28 28 29 29 29 29 28 27 26 26 29 30 31 33 32 32 32 29 25 24 26 29 28 25 26 28 29 28 27 27 27 26 27 28
47 50 50 48 47 47 46 45 44 44 44 44 45 45 46 48 50 52 53 53 53 53 53 53 53 53 53 52 51 50 49 48 47 46 45 44 43 42 41 40 39 39 38 38 37 36 35 34 31 30 32 32 31 31 30 30 30 31 31 30 30 29 28 29 31 32 34 36 34 34 34 31 27 25 25 27 27 24 25 27 28 28 29 29 28 27 28 28
46 48 51 51 50 49 48 47 46 45 45 44 45 45 45 46 48 50 51 53 54 54 54 54 54 54 54 54 53 51 51 50 49 48 47 46 45 44 43 42 42 41 41 40 39 38 37 34 32 32 33 32 32 32 32 32 32 32 32 32 32 31 30 31 32 34 36 37 36 36 37 33 28 27 26 26 27 26 25 26 26 27 28 28 29 29 29 29
49 48 49 52 52 51 50 49 47 46 46 46 45 46 46 46 47 48 50 52 53 53 54 54 54 55 55 55 54 53 52 51 50 49 48 48 47 46 45 44 44 43 42 41 40 39 38 35 34 34 34 34 34 34 33 33 33 33 33 34 33 33 33 33 34 35 37 39 39 39 41 36 30 28 27 27 29 27 26 27 25 26 27 28 29 30 30 30
52 50 49 50 52 53 52 51 49 48 48 47 46 47 48 47 48 48 50 52 53 53 53 54 55 56 55 56 56 55 54 53 52 51 50 50 49 48 47 46 45 45 43 42 41 41 39 37 36 35 35 35 35 34 34 35 35 35 35 35 35 34 35 36 36 37 38 40 40 41 44 40 31 30 29 28 31 28 27 29 27 27 28 29 30 30 31 31
54 53 52 50 50 52 53 53 51 50 50 48 48 48 49 48 49 49 50 53 55 53 52 54 55 55 55 56 57 56 55 55 53 52 52 51 50 49 48 48 47 46 45 44 43 42 40 39 38 37 37 36 36 36 36 37 37 36 36 36 36 36 37 37 38 40 41 42 41 42 48 44 33 30 30 28 30 29 29 30 29 28 30 30 31 31 31 31
57 56 54 53 52 51 51 52 52 53 52 50 50 50 49 49 49 51 51 55 57 54 51 53 55 56 55 56 56 56 57 57 54 53 53 52 52 51 50 49 48 47 45 45 44 44 42 41 40 39 38 38 38 38 38 38 38 38 37 36 37 37 38 39 40 42 44 44 43 43 47 49 40 32 30 30 30 29 28 30 29 29 30 30 30 31 31 31
58 58 57 56 55 53 51 50 51 52 52 53 53 52 51 51 51 52 52 56 59 55 51 52 54 55 55 55 55 55 58 57 53 53 53 52 52 52 51 51 49 47 46 46 46 45 44 42 41 41 40 40 40 39 38 39 40 39 38 37 38 38 39 41 42 44 46 47 47 43 44 52 49 36 30 31 30 27 26 27 29 30 30 30 30 30 31 31
58 58 58 58 58 56 55 53 51 50 52 54 55 55 54 53 53 53 53 58 59 56 53 52 53 55 55 55 55 56 59 58 54 53 53 53 53 53 53 52 50 48 47 47 48 47 46 45 43 42 43 43 41 39 40 40 40 40 40 40 39 39 40 42 44 46 48 50 51 44 41 51 54 42 34 32 29 26 25 26 28 29 29 30 30 30 31 32
59 58 57 58 59 59 58 56 53 53 54 53 53 55 56 57 57 56 57 60 59 56 55 53 52 54 56 56 56 57 59 60 58 55 53 54 55 54 54 52 50 49 49 49 49 48 48 47 45 44 44 43 41 41 41 40 41 42 42 42 40 41 42 42 45 47 49 55 52 43 42 50 57 49 37 32 31 28 27 27 27 28 28 29 31 32 32 33
61 60 58 59 60 60 59 56 54 56 56 55 55 55 56 59 59 59 63 62 57 57 58 56 54 54 56 57 57 57 58 59 58 57 55 55 55 55 54 52 51 51 50 50 49 49 50 49 47 46 44 43 42 42 42 42 42 41 42 42 41 42 42 43 46 48 52 57 52 44 44 50 58 55 39 33 34 31 29 28 27 28 28 30 32 33 34 34
63 62 61 60 60 60 59 56 54 56 57 57 58 58 59 60 61 63 65 62 58 60 61 59 57 56 56 57 57 57 58 58 58 58 57 55 55 55 54 53 52 52 52 51 50 50 50 50 48 46 44 43 43 44 44 43 42 41 41 41 41 42 44 46 49 50 54 57 51 46 47 51 59 57 43 36 35 33 30 27 25 27 28 30 32 32 33 34
62 63 63 61 58 58 59 56 54 56 58 58 59 61 63 63 65 66 61 57 60 65 65 62 59 58 58 58 58 58 58 59 59 59 58 57 56 56 55 54 53 52 53 52 51 51 51 51 49 48 47 46 46 46 46 44 42 41 40 40 42 44 47 50 52 53 55 56 53 51 52 56 59 55 46 39 35 33 32 28 24 25 26 28 30 31 31 33
62 62 62 60 58 56 57 56 56 57 58 58 57 58 62 67 70 66 57 55 61 66 66 64 62 60 60 60 60 60 59 59 59 59 59 59 58 58 57 56 55 55 56 55 54 53 53 53 52 52 51 49 48 47 45 44 42 41 42 43 45 47 50 53 54 55 56 57 57 56 57 60 59 52 46 40 35 34 33 31 29 26 27 28 29 30 31 32
61 61 61 60 58 55 55 55 56 56 56 59 60 58 60 65 67 64 59 57 59 62 65 66 65 64 65 64 63 62 61 60 60 60 61 60 60 60 59 59 58 57 57 56 56 55 56 56 54 52 52 50 49 47 45 44 43 44 45 46 48 49 51 53 54 56 59 60 61 60 61 62 57 51 46 40 36 34 33 34 34 30 28 28 27 28 30 31
60 60 61 60 59 58 57 57 56 55 54 56 60 62 63 60 57 59 60 58 58 61 64 66 67 66 67 67 66 65 65 63 62 62 63 63 62 61 60 59 58 58 57 57 57 57 57 57 55 53 52 51 49 48 47 46 46 47 48 50 53 52 52 53 56 59 61 64 64 63 62 60 55 51 47 42 38 35 34 35 36 34 31 29 28 29 30 31
61 60 60 59 58 57 60 61 59 57 56 54 56 62 63 58 52 51 52 53 57 61 62 64 65 65 65 66 67 68 68 68 67 67 66 66 65 63 62 60 59 59 58 58 58 58 58 58 57 55 54 53 52 51 51 51 51 52 54 56 56 54 53 54 58 61 62 65 65 63 61 58 55 51 45 41 39 36 36 36 36 36 34 31 31 31 31 32
63 62 61 59 57 56 58 60 60 59 60 61 61 61 59 57 53 50 48 48 52 57 62 65 65 64 63 63 64 64 66 67 68 69 69 69 69 67 64 62 61 60 59 58 58 59 59 59 59 59 58 57 56 56 56 56 57 59 60 59 57 56 57 58 60 62 63 65 65 63 60 58 55 50 42 40 40 38 38 38 37 36 35 34 33 33 33 33
67 66 64 60 58 58 58 59 60 60 61 64 66 63 60 58 54 51 51 49 49 52 59 65 66 66 66 65 63 62 63 65 66 67 68 70 71 70 67 65 64 62 59 59 60 60 60 60 61 62 61 61 60 61 61 62 63 63 63 62 60 60 61 60 60 61 62 63 63 61 59 55 51 46 42 41 40 39 39 39 36 35 34 33 33 34 35 34
71 70 67 62 61 62 61 62 64 65 65 68 68 65 61 57 52 52 53 51 51 51 54 59 63 67 69 68 65 64 64 64 64 66 67 69 71 71 69 67 66 64 62 62 62 62 61 62 64 65 65 65 65 65 66 66 66 65 63 63 63 62 62 61 60 59 59 60 60 58 56 50 46 43 43 42 40 40 41 38 36 34 33 32 33 34 35 34
73 73 69 65 66 67 67 67 68 70 71 70 68 64 60 56 54 55 54 52 53 53 51 54 58 63 66 66 65 64 64 65 65 66 67 67 68 68 68 67 66 65 63 62 62 61 62 64 66 67 68 68 68 67 66 64 62 60 60 61 60 60 60 59 58 57 56 56 57 56 54 48 44 43 43 42 41 41 40 39 36 34 33 33 33 34 34 35
75 76 72 69 70 71 71 72 73 74 73 70 66 62 60 59 58 57 55 55 56 54 52 53 55 57 60 63 65 62 60 62 64 66 68 67 66 65 64 64 64 63 62 61 61 61 62 64 64 65 66 66 65 62 60 58 56 55 56 57 57 56 56 56 57 57 55 55 54 54 53 47 44 46 46 44 44 43 40 39 39 37 37 35 34 35 36 35
77 77 73 72 73 74 75 75 74 75 75 73 68 63 62 61 60 59 59 59 59 57 56 55 54 54 54 55 57 55 54 54 54 58 63 66 65 63 62 63 64 63 63 63 62 60 59 59 60 61 63 63 61 58 57 57 57 57 57 58 57 57 58 58 58 56 55 54 52 53 53 46 41 47 49 47 49 48 44 42 43 43 42 39 36 35 37 36
77 76 73 74 75 75 77 77 74 74 75 74 70 68 67 64 61 61 62 62 61 60 60 58 57 55 53 51 52 52 52 52 50 51 54 58 61 61 61 64 67 68 67 66 64 62 61 61 61 62 64 63 61 60 60 60 61 62 62 62 60 60 58 57 56 54 54 55 52 54 55 47 41 47 51 50 52 52 48 46 46 46 44 43 40 37 36 39
75 75 76 77 76 75 78 79 76 74 74 73 73 73 72 68 66 65 63 61 61 61 61 61 58 57 55 53 54 54 53 53 52 50 49 52 54 54 54 57 61 65 69 69 67 65 63 63 62 62 62 63 64 65 65 65 66 66 64 62 61 59 57 57 56 55 56 56 53 56 58 50 45 50 53 53 54 54 53 50 47 45 44 44 44 41 40 43
73 75 77 80 79 76 77 78 77 76 75 74 74 74 73 72 72 68 64 63 63 63 62 61 60 59 58 56 56 56 55 54 53 52 51 51 51 50 50 52 53 55 59 63 65 64 63 63 61 60 61 65 68 68 67 66 65 64 62 59 58 57 57 56 54 53 56 57 57 60 60 54 51 53 54 54 53 53 55 57 53 48 45 44 46 47 46 45
73 75 77 79 80 78 76 75 75 76 76 75 75 75 74 75 74 71 69 68 67 65 63 62 62 62 61 60 58 58 57 56 55 54 52 51 50 51 53 52 51 49 50 53 58 60 62 64 64 64 65 67 68 66 64 62 61 60 59 57 56 54 53 52 51 53 57 59 61 61 59 56 54 55 54 54 53 52 56 60 57 50 47 48 50 51 49 48
75 76 76 77 79 79 77 74 73 73 74 75 77 77 76 76 75 73 73 71 69 67 65 65 65 66 64 61 59 59 58 58 58 55 52 50 50 53 55 54 51 48 47 49 53 57 61 65 67 67 68 68 65 64 64 63 60 59 56 56 55 54 53 53 55 57 57 59 60 57 55 56 54 53 54 53 53 54 54 55 54 52 52 54 54 53 53 52
77 76 75 75 77 78 78 75 72 71 72 73 76 77 76 76 76 75 74 72 70 70 69 68 68 68 65 61 59 59 60 61 60 55 51 50 51 53 55 55 53 50 49 50 51 54 58 61 63 64 65 64 61 61 63 62 61 60 58 57 55 54 55 56 58 58 56 58 59 54 55 58 54 52 55 53 52 53 51 51 53 55 56 56 56 57 57 56
79 77 75 76 77 78 77 75 73 73 72 72 74 75 75 76 76 75 74 72 72 72 72 71 68 65 63 61 62 62 62 61 58 53 51 51 52 54 55 56 55 52 50 50 51 52 54 55 55 56 57 56 55 56 58 59 60 60 60 59 57 56 57 58 58 57 56 59 59 56 59 60 54 54 56 52 50 51 52 53 55 56 57 57 57 58 58 58
80 78 76 76 78 78 77 76 74 73 74 74 74 73 73 74 75 75 75 75 75 75 75 74 70 66 63 63 64 65 62 59 55 52 52 52 53 54 56 56 55 51 48 48 49 50 52 52 51 51 53 52 50 52 55 57 58 60 60 60 59 58 58 59 58 57 58 60 58 57 60 58 52 53 55 53 52 54 55 56 55 55 57 58 58 59 59 58
79 79 78 78 80 79 78 77 72 68 71 76 76 74 73 73 73 74 75 77 77 76 76 75 73 70 67 67 68 66 60 56 54 53 53 53 53 53 54 54 52 47 44 45 47 48 49 49 48 48 51 50 46 49 54 54 56 60 61 61 60 60 61 60 58 56 56 57 55 56 59 55 50 51 54 54 54 54 55 55 56 57 58 58 58 57 56 54
78 80 80 81 82 81 79 79 75 70 70 72 74 75 75 73 71 71 75 78 77 76 75 74 74 73 71 70 68 63 58 55 55 55 54 53 53 54 55 54 52 49 44 42 44 44 44 44 42 43 46 43 40 46 50 50 55 60 58 55 56 58 59 58 55 53 52 52 52 56 58 54 50 52 54 53 52 52 53 54 54 55 55 55 55 52 49 47
Wind_Direction
215 215 216 216 215 215 214 215 215 216 216 216 216 214 213 214 216 217 216 216 213 210 207 204 201 200 200 199 200 200 198 197 196 195 195 195 196 197 198 200 202 203 203 202 202 202 202 201 202 203 206 210 214 218 222 228 234 242 251 259 267 273 279 286 292 294 297 300 305 309 309 309 308 307 305 300 297 297 293 284 274 266 261 262 267 271 273 275
216 216 217 217 217 217 216 216 216 217 217 217 217 216 215 215 217 218 218 216 214 210 207 205 203 202 202 202 203 202 200 200 198 197 196 197 197 198 199 201 203 204 204 203 202 203 203 203 205 207 212 216 219 224 227 233 240 249 259 267 272 275 280 286 290 291 295 302 307 310 311 312 311 308 303 297 294 292 290 285 278 270 260 258 263 270 276 279
217 217 217 217 217 218 218 218 218 218 218 218 218 217 216 216 217 218 218 217 214 211 208 207 205 205 205 205 206 205 203 202 201 200 199 199 199 199 200 201 203 204 204 203 203 206 206 207 209 212 217 221 225 229 233 240 248 257 265 272 278 281 285 289 288 288 294 302 308 312 312 313 311 306 301 294 288 285 285 284 279 273 263 257 259 267 274 281
219 219 218 218 218 218 219 220 220 220 219 219 218 217 217 217 218 219 219 218 214 211 209 209 208 207 208 208 209 207 205 205 204 203 203 203 203 203 203 202 203 204 204 203 204 207 210 211 213 216 220 224 229 234 241 249 256 263 269 274 280 284 289 290 287 287 293 301 307 311 312 312 310 306 300 292 284 281 282 281 278 274 266 258 256 262 268 275
220 220 220 219 219 219 220 221 221 221 220 220 219 218 217 217 218 219 220 218 215 212 211 210 210 210 210 211 211 209 207 207 206 205 206 205 205 205 204 204 204 204 204 204 205 208 211 214 216 220 225 229 235 242 249 256 261 266 270 274 278 284 287 286 284 285 291 300 305 309 311 311 308 305 301 291 282 280 278 277 276 272 267 259 256 259 263 268
220 221 221 221 221 221 221 222 222 222 221 220 219 219 218 218 218 220 220 218 215 213 212 212 212 212 213 213 212 210 209 209 207 206 206 205 205 205 204 204 203 203 203 204 206 209 213 216 220 226 231 236 242 248 253 258 262 264 268 272 276 280 281 282 281 283 290 298 303 307 311 312 311 308 301 292 284 280 276 274 275 274 270 264 260 260 263 266
221 221 221 221 222 222 223 223 223 222 222 221 220 219 218 218 219 220 220 218 215 214 213 214 214 214 214 214 213 212 211 210 208 207 206 204 203 203 202 202 203 203 204 206 209 212 217 221 225 232 237 242 246 250 254 258 261 263 266 270 274 276 276 276 277 281 288 295 301 308 313 315 313 308 301 294 287 281 276 273 273 274 274 271 266 264 265 267
222 222 222 222 223 223 224 224 223 223 222 221 220 219 219 219 219 220 221 219 216 214 214 215 215 216 216 215 215 214 212 211 210 208 208 206 203 202 202 202 204 205 207 210 213 216 220 224 229 235 240 245 248 251 255 258 261 264 266 269 271 273 273 272 272 278 285 291 300 307 314 317 313 308 301 295 291 286 282 275 271 271 273 274 272 270 270 272
222 223 223 223 224 224 225 224 223 223 222 221 220 219 219 219 219 220 221 220 218 215 215 216 217 217 217 216 216 216 213 212 212 210 209 208 205 204 204 205 206 208 211 213 216 219 222 225 230 236 242 247 250 253 256 259 262 264 265 267 271 272 272 272 272 276 282 289 297 304 312 313 310 305 297 295 296 292 286 278 270 266 267 269 271 273 274 276
223 223 224 224 224 224 225 225 224 223 222 221 220 219 219 219 220 221 222 221 219 217 216 216 218 218 218 217 216 217 215 213 213 212 210 210 209 208 208 209 209 211 213 215 218 220 222 225 230 236 243 249 253 253 256 259 263 265 267 267 269 271 273 275 276 278 282 288 295 301 306 308 306 300 295 299 300 294 287 281 274 268 265 265 268 272 274 275
224 224 224 224 224 224 224 224 225 224 223 221 220 219 219 219 220 221 222 222 221 219 217 217 218 220 220 218 218 218 217 215 215 214 213 211 211 212 212 212 213 214 216 218 220 222 223 226 230 236 242 249 253 255 257 260 263 266 269 269 269 270 273 276 279 281 284 289 294 297 301 304 301 297 296 301 300 294 291 284 279 274 271 270 270 272 273 274
223 224 224 224 224 224 224 223 224 224 224 223 222 220 220 219 220 221 222 223 222 220 219 218 219 221 221 220 220 219 218 218 217 217 215 214 214 214 215 216 217 218 219 221 222 224 225 227 230 235 241 248 253 257 259 261 264 267 269 270 269 269 272 277 281 285 287 290 293 294 300 303 297 296 299 300 298 296 293 287 283 279 276 275 274 274 274 274
222 223 224 225 225 225 225 224 224 224 224 224 224 223 222 221 221 221 222 222 223 221 220 219 220 222 222 222 221 220 220 219 219 220 219 218 217 218 219 220 220 221 223 224 226 227 229 231 233 236 241 246 252 257 261 264 267 268 268 269 269 270 274 279 283 287 288 289 291 292 299 301 296 297 299 297 297 295 293 289 285 281 279 278 276 275 275 276
222 222 223 224 225 225 225 226 225 225 224 225 225 225 224 224 223 223 223 223 223 222 221 220 221 222 223 223 223 222 221 221 221 221 222 221 221 222 222 223 224 225 226 227 229 232 233 235 237 239 243 246 250 254 259 263 265 267 267 268 270 273 277 282 285 287 288 288 290 291 296 299 296 297 297 296 297 296 293 290 286 283 280 279 278 277 277 277
224 223 222 223 224 225 225 226 226 226 226 226 226 226 226 226 225 225 225 225 224 224 222 221 221 222 223 224 225 224 223 223 223 223 224 224 225 225 226 227 228 229 230 231 233 235 237 239 241 242 244 247 250 254 257 259 263 265 265 267 272 279 283 285 286 285 285 287 288 290 293 297 297 296 296 295 296 296 294 291 287 284 281 280 279 279 279 277
227 226 224 223 224 224 225 226 226 227 227 227 227 227 227 227 227 227 227 227 226 226 224 223 222 222 223 224 225 225 224 224 225 224 225 226 227 228 229 230 231 232 234 235 237 239 240 242 243 244 246 249 252 255 257 259 261 263 265 271 278 283 285 286 286 284 285 286 287 287 290 296 295 293 295 295 294 293 293 291 288 284 281 279 278 278 279 279
228 228 227 225 224 224 225 225 226 227 227 227 227 227 227 227 227 227 228 228 228 228 227 225 224 223 223 224 225 225 224 225 226 226 226 227 228 230 231 233 234 235 237 238 239 241 243 244 245 247 249 251 254 255 256 258 261 264 270 276 279 281 283 284 285 285 285 285 286 286 290 296 295 293 295 295 293 291 291 290 288 285 280 277 276 277 279 280
229 229 229 228 227 225 225 225 226 226 227 227 228 228 228 228 228 228 228 229 229 229 228 227 225 224 224 224 225 226 225 226 226 228 228 228 229 231 233 234 236 237 239 241 242 244 245 247 248 250 252 253 254 255 256 259 263 267 271 274 276 278 280 282 283 283 284 285 286 287 289 293 295 297 297 294 291 291 291 290 288 284 278 274 275 277 279 281
230 230 230 230 229 228 226 226 226 226 227 227 228 228 229 229 229 230 230 230 230 230 229 228 227 225 224 224 225 226 226 227 227 228 230 230 231 232 233 235 237 239 241 243 245 246 248 249 250 252 253 254 255 256 259 262 265 267 269 271 273 276 278 281 281 281 284 284 286 289 289 290 294 298 297 294 294 295 292 288 285 283 278 273 272 275 279 280
231 231 231 231 231 230 229 228 227 227 227 228 228 228 229 229 230 230 231 231 232 232 231 230 228 226 225 225 225 226 227 228 228 229 230 231 232 233 235 236 238 240 242 244 246 247 249 250 252 254 255 256 258 260 262 264 265 267 269 271 273 275 278 280 280 282 284 284 285 288 288 289 293 296 295 294 296 297 290 283 281 281 279 274 272 274 277 278
232 231 232 232 232 232 231 231 230 229 228 228 229 229 229 229 230 230 230 231 232 232 232 231 229 227 226 226 226 226 228 229 230 231 232 233 234 235 237 238 240 241 242 244 246 248 250 252 253 255 256 258 260 262 263 264 266 268 270 272 274 276 277 278 280 283 284 284 286 288 286 287 292 293 293 293 293 293 289 284 281 279 278 275 274 275 276 277
233 233 232 232 232 233 232 232 232 232 231 230 230 230 230 230 231 230 230 231 231 232 232 231 230 228 227 227 226 227 228 229 231 232 233 234 236 237 238 239 240 242 243 245 247 249 250 253 254 255 258 260 262 263 264 265 267 270 271 273 274 276 278 278 280 281 283 285 286 287 286 286 291 294 295 294 290 289 289 288 284 280 277 275 275 276 278 280
234 234 234 233 233 233 233 233 233 234 234 233 232 232 232 231 231 231 231 231 230 231 231 231 230 229 228 228 227 227 228 230 231 233 234 235 237 238 239 240 242 243 245 247 248 250 252 253 254 256 259 260 262 263 265 267 269 270 272 273 275 277 278 278 280 281 283 285 286 288 286 285 291 295 296 295 290 289 290 289 287 282 277 275 274 276 279 279
236 235 235 235 234 234 234 234 234 234 236 235 235 235 234 234 233 233 233 232 230 229 230 230 229 229 228 228 228 228 229 230 232 233 235 236 238 239 241 242 244 245 247 248 250 251 252 254 255 257 259 260 262 265 267 268 269 270 272 274 276 278 278 279 281 281 282 284 286 289 286 284 291 295 295 295 291 290 289 287 285 281 276 274 274 276 278 277
238 237 237 237 236 235 234 234 234 235 236 236 237 237 237 236 236 236 236 236 231 228 229 230 230 229 228 229 229 229 230 230 232 234 236 238 239 241 242 243 245 246 248 250 251 252 254 256 257 258 259 261 264 265 267 268 269 271 272 275 276 277 279 280 281 281 282 283 285 288 287 285 288 292 293 293 290 290 289 287 285 280 277 276 276 276 276 275
239 238 237 237 238 238 237 236 235 236 236 237 238 238 238 238 239 239 240 240 235 228 228 229 230 229 228 229 230 230 231 231 232 235 236 238 240 242 243 244 246 248 250 252 253 253 254 257 258 258 260 261 263 265 267 269 270 271 273 275 276 277 279 279 280 281 282 283 284 286 289 288 287 288 292 290 288 288 288 286 284 281 280 279 278 277 275 274
238 239 239 239 238 239 239 238 238 238 237 238 239 239 239 239 241 241 242 244 237 229 228 229 230 230 229 230 231 232 233 231 232 236 237 239 241 243 245 246 248 249 250 252 252 253 254 255 256 258 260 261 264 266 267 268 271 273 274 275 275 276 277 278 280 281 282 284 283 284 291 290 286 287 288 286 287 289 287 285 284 283 282 280 277 275 273 272
236 238 240 240 239 238 238 238 239 240 240 240 240 240 240 240 241 241 243 245 238 230 230 230 230 231 230 230 231 232 233 232 232 235 237 239 241 242 244 245 247 247 248 249 251 252 253 254 255 257 260 262 265 266 267 269 272 273 274 274 275 276 276 278 280 281 282 282 281 285 291 289 287 287 286 284 288 290 287 285 283 282 280 279 277 275 274 273
236 237 239 241 239 238 238 238 239 240 241 241 241 241 241 242 243 242 243 243 237 232 232 231 230 232 232 233 232 233 234 233 234 235 236 238 240 241 243 244 245 246 247 249 251 252 253 255 256 257 260 263 265 266 267 269 271 272 273 274 275 275 276 278 278 280 281 279 280 287 291 289 287 284 284 290 291 289 286 284 281 278 277 277 276 276 275 276
235 235 238 240 240 238 237 237 238 240 241 242 242 242 242 242 242 243 244 242 237 235 235 232 231 231 233 235 235 235 236 236 236 236 237 238 240 242 243 244 245 247 248 250 251 253 255 256 257 258 261 263 265 266 267 268 269 270 272 272 274 275 276 277 277 278 278 277 282 288 288 288 284 281 287 294 291 288 287 283 280 276 276 276 276 276 276 276
236 235 235 238 240 238 236 236 238 240 241 241 242 243 243 242 241 241 243 243 241 239 238 236 233 232 233 235 237 237 238 238 239 240 240 240 241 243 244 245 247 249 250 251 253 255 256 258 259 261 262 262 263 265 265 266 267 269 271 273 274 275 275 274 274 276 277 279 284 287 285 284 280 281 291 295 290 291 289 283 277 274 275 276 276 276 276 277
236 235 234 235 237 237 235 235 237 239 240 241 242 243 244 244 243 242 241 243 243 240 239 239 237 234 235 236 237 239 239 240 241 242 243 243 243 244 244 246 248 250 251 252 254 255 256 257 259 260 260 261 262 263 265 267 269 270 271 272 272 273 273 274 275 276 278 281 284 284 284 280 278 282 291 293 292 290 288 285 278 272 274 275 276 277 277 279
236 236 235 235 235 236 235 234 236 238 240 241 242 242 242 242 244 245 242 241 243 242 241 242 241 240 239 238 239 239 240 241 242 243 244 245 245 244 244 246 247 249 251 252 253 254 255 257 258 260 262 263 264 266 267 268 269 269 268 269 270 271 273 274 276 278 279 281 281 282 281 279 279 284 289 291 290 286 284 285 281 276 274 274 276 278 277 278
237 236 236 236 235 234 233 233 235 237 240 241 241 241 242 241 243 246 243 240 242 244 244 244 244 244 244 243 243 243 244 244 244 245 246 246 246 246 246 247 248 250 252 253 254 256 257 258 260 262 264 265 266 267 267 267 267 267 267 267 268 270 273 275 277 279 279 279 279 279 279 279 282 286 287 287 285 281 281 282 281 280 277 277 278 278 277 277
237 236 236 235 234 234 233 233 234 235 236 239 240 238 239 241 244 245 245 243 243 244 244 244 245 245 245 245 244 245 247 247 246 247 248 248 248 248 248 249 250 252 253 255 256 257 259 260 261 263 265 266 267 267 267 266 265 266 266 267 268 271 273 274 275 276 277 278 278 278 279 280 283 284 284 284 281 278 278 278 280 281 281 282 282 280 279 279
236 236 236 235 234 235 235 234 234 235 234 236 239 239 238 239 241 243 245 244 244 244 244 245 247 247 246 246 245 245 247 248 248 249 249 250 250 250 250 251 252 253 254 256 258 259 261 261 262 263 264 264 265 265 265 265 266 266 267 268 270 271 270 270 272 273 275 276 277 277 278 280 281 280 280 280 278 277 277 276 277 280 284 286 285 282 281 280
235 236 236 235 234 234 234 234 235 237 237 237 240 243 242 239 237 239 240 241 242 242 242 244 246 248 248 247 246 246 247 248 249 250 251 251 251 250 251 252 254 255 256 258 259 260 261 262 261 261 262 263 263 264 264 265 266 267 268 269 269 268 268 269 270 272 273 275 275 276 276 276 276 276 276 276 276 276 275 274 275 279 283 286 285 284 282 282
234 235 235 235 234 233 233 233 233 235 237 238 238 240 241 239 237 237 238 239 241 242 241 242 244 246 247 248 247 247 248 248 248 249 250 252 252 251 251 253 254 256 258 259 259 259 259 260 260 260 260 261 261 262 263 264 265 266 267 267 266 266 267 268 270 271 273 274 274 273 272 272 272 273 275 275 275 275 274 273 275 278 281 284 284 283 282 283
233 234 234 234 234 234 233 232 232 232 233 235 236 236 237 236 236 237 237 238 242 243 242 242 243 245 246 247 248 248 250 250 249 248 249 250 250 250 251 253 254 255 256 257 258 258 258 259 259 258 259 259 259 260 262 263 265 265 266 266 266 267 268 268 268 269 270 271 271 269 268 268 269 273 275 275 273 272 273 274 276 279 280 280 279 280 282 283
233 233 233 232 233 234 233 232 232 232 232 234 236 237 237 236 236 238 239 239 242 243 242 240 242 246 247 248 249 250 252 252 251 250 249 249 248 248 249 251 252 253 254 255 256 256 256 256 256 257 257 258 259 261 263 264 264 264 264 264 264 265 265 266 266 265 265 266 267 268 268 267 271 275 274 273 270 269 272 276 278 279 279 277 278 279 280 281
234 233 231 231 232 233 233 233 233 233 234 235 236 238 238 237 237 238 239 239 240 240 240 238 239 243 246 247 249 251 253 255 254 253 251 249 248 247 247 249 251 251 252 253 253 254 256 257 257 257 257 258 260 261 262 262 261 260 260 260 261 260 260 260 260 260 260 262 264 269 270 270 273 276 274 273 274 272 275 279 281 280 278 277 278 278 279 280
234 233 231 231 232 233 234 234 234 235 236 236 237 238 239 238 237 238 238 239 239 238 238 238 239 241 242 242 244 248 252 255 255 254 253 250 248 246 246 248 250 250 250 251 252 254 256 257 257 256 255 256 257 256 256 256 257 257 257 258 257 257 256 256 257 259 261 262 265 268 270 269 271 275 275 276 277 277 280 282 282 281 280 278 277 277 279 280
234 233 231 231 232 232 234 234 233 234 236 237 237 237 237 237 237 237 237 238 239 239 239 240 242 244 244 244 245 248 252 254 254 254 254 252 249 248 247 248 248 249 249 249 250 250 252 254 254 254 254 253 254 254 254 254 255 256 256 257 256 257 258 259 260 262 263 264 267 268 269 268 269 272 274 275 276 279 280 280 280 280 281 280 278 278 280 280
234 232 231 232 232 232 233 233 232 234 236 237 237 236 236 237 237 237 238 238 239 240 242 242 244 246 247 247 248 249 251 254 255 255 254 253 250 249 250 251 250 249 248 248 248 248 251 254 255 255 254 253 253 253 253 253 254 255 256 258 260 262 263 262 263 264 264 266 268 267 267 268 268 269 272 274 276 279 280 279 277 277 279 281 281 280 278 277
235 232 231 232 232 232 233 233 233 235 235 235 236 236 236 237 238 238 239 239 239 239 241 242 243 245 245 246 248 249 249 251 253 254 254 253 250 248 251 254 253 251 249 248 247 248 250 252 252 252 252 252 253 253 254 256 258 259 260 262 264 265 265 265 264 263 263 264 263 263 266 269 269 269 270 273 275 278 280 280 279 280 281 282 280 277 275 276
236 233 231 232 233 233 233 233 233 234 234 233 234 235 236 237 238 239 238 238 238 239 239 240 242 244 244 244 246 247 248 249 251 253 254 255 253 251 252 254 254 254 251 248 247 248 249 250 249 250 251 252 254 256 258 259 259 259 260 260 261 260 261 260 258 258 261 262 260 262 267 269 268 269 271 273 274 274 276 278 282 285 284 280 277 276 277 279
236 234 232 232 234 234 232 231 232 233 233 233 234 234 235 236 237 237 237 237 238 239 239 239 241 242 243 243 244 246 248 249 251 252 253 256 257 254 252 252 253 253 251 248 247 248 249 250 249 250 252 253 254 255 257 257 256 257 257 256 256 256 255 254 254 258 261 260 260 265 267 266 267 268 269 270 271 272 273 277 282 283 280 278 279 281 283 283
236 235 233 233 234 234 233 231 232 233 233 232 234 234 234 234 235 236 236 236 237 238 238 237 238 241 242 243 244 245 246 248 250 251 252 255 257 255 252 252 252 251 250 248 247 247 249 250 251 252 254 254 253 254 255 255 255 255 254 253 253 253 253 254 258 261 260 259 263 266 265 264 266 267 267 268 270 272 273 275 276 276 277 280 282 283 284 285
236 235 234 234 234 234 233 231 231 233 233 232 233 233 232 232 233 234 236 236 235 235 236 236 238 240 242 243 244 244 245 246 248 250 252 255 255 254 254 254 252 251 251 250 249 250 251 252 254 255 255 255 253 253 254 254 253 253 251 251 251 252 254 256 260 261 259 260 264 265 264 265 267 268 269 270 270 270 269 269 270 273 277 279 280 281 282 284
236 235 234 235 235 235 234 232 231 231 232 232 233 232 232 232 232 233 235 236 235 235 236 238 240 240 240 242 243 244 245 246 248 250 253 256 255 253 254 255 254 253 252 252 253 253 254 255 257 257 256 256 255 254 253 252 252 251 249 248 249 251 254 256 257 258 258 260 265 265 264 266 268 268 269 269 268 268 268 269 272 273 275 276 277 279 280 282
236 236 235 235 235 235 234 233 231 231 231 232 233 232 231 232 232 232 233 235 236 236 236 238 239 239 238 239 241 243 244 247 250 250 250 253 253 253 253 254 253 253 252 251 252 253 254 256 256 254 254 255 254 250 248 248 249 248 247 248 250 253 255 256 257 258 258 261 263 262 262 264 266 266 266 266 267 269 270 272 274 275 276 277 278 279 281 281
235 236 235 235 235 235 234 234 231 230 229 230 233 234 234 233 232 232 233 232 233 235 236 237 237 238 238 238 239 242 244 247 249 249 248 249 250 251 252 251 249 247 245 243 244 246 247 248 248 246 247 248 245 242 242 243 242 243 247 251 252 253 253 253 253 254 255 257 258 257 258 262 262 261 262 265 267 270 272 274 277 278 280 280 281 282 282 280
Height
5810 5812 5814 5816 5818 5820 5822 5823 5825 5827 5829 5831 5832 5834 5835 5837 5838 5839 5840 5842 5843 5845 5846 5848 5849 5850 5852 5853 5854 5855 5856 5857 5858 5859 5860 5861 5862 5863 5865 5866 5867 5868 5869 5870 5871 5872 5873 5873 5874 5875 5876 5877 5877 5878 5879 5879 5880 5880 5880 5881 5881 5881 5881 5881 5880 5880 5880 5879 5879 5878 5878 5878 5877 5876 5876 5875 5875 5874 5874 5874 5874 5874 5874 5874 5874 5874 5874 5874
5807 5809 5811 5813 5815 5817 5819 5821 5823 5825 5827 5828 5830 5832 5833 5835 5836 5837 5839 5840 5842 5843 5845 5846 5848 5849 5851 5852 5853 5854 5855 5856 5857 5858 5859 5860 5861 5863 5864 5865 5866 5867 5868 5869 5870 5871 5872 5873 5874 5875 5875 5876 5877 5877 5878 5878 5879 5879 5879 5880 5880 5880 5880 5880 5880 5879 5879 5878 5878 5877 5877 5877 5876 5876 5875 5874 5874 5874 5873 5873 5873 5873 5873 5874 5873 5873 5873 5873
5804 5806 5808 5810 5812 5815 5817 5818 5820 5822 5824 5826 5828 5830 5831 5833 5834 5835 5837 5838 5840 5841 5843 5845 5846 5848 5849 5851 5852 5853 5854 5855 5856 5857 5858 5859 5860 5862 5863 5864 5865 5866 5867 5868 5869 5870 5871 5872 5873 5874 5874 5875 5876 5876 5877 5877 5878 5878 5878 5878 5878 5878 5879 5879 5879 5878 5878 5877 5877 5876 5876 5876 5876 5875 5874 5874 5873 5873 5872 5872 5872 5872 5872 5872 5873 5873 5872 5872
5801 5803 5805 5807 5809 5811 5814 5816 5818 5820 5822 5823 5825 5827 5829 5831 5832 5834 5835 5837 5838 5840 5841 5843 5845 5847 5848 5849 5850 5852 5853 5854 5855 5856 5857 5858 5859 5860 5862 5863 5864 5865 5866 5867 5868 5869 5870 5871 5872 5872 5873 5874 5875 5875 5876 5876 5877 5877 5877 5877 5877 5877 5877 5877 5877 5877 5877 5876 5876 5875 5875 5875 5875 5874 5873 5872 5872 5872 5871 5871 5871 5871 5871 5871 5872 5872 5872 5871
5797 5800 5802 5804 5806 5808 5810 5813 5815 5817 5819 5821 5823 5825 5826 5828 5830 5831 5833 5835 5836 5838 5840 5841 5843 5845 5847 5848 5849 5850 5852 5853 5854 5855 5856 5857 5858 5859 5860 5861 5863 5864 5865 5866 5867 5868 5869 5870 5871 5871 5872 5873 5873 5874 5875 5875 5876 5876 5876 5876 5876 5876 5876 5876 5876 5876 5875 5875 5875 5875 5874 5874 5873 5873 5872 5871 5871 5870 5870 5870 5870 5870 5870 5870 5871 5871 5871 5871
5794 5796 5799 5801 5803 5805 5807 5810 5812 5814 5816 5818 5820 5822 5824 5826 5828 5829 5831 5833 5834 5836 5838 5840 5842 5843 5845 5846 5848 5849 5850 5851 5853 5854 5855 5856 5857 5858 5859 5860 5861 5863 5864 5865 5866 5867 5867 5869 5870 5870 5871 5872 5872 5873 5874 5874 5874 5874 5874 5874 5875 5875 5875 5875 5874 5874 5874 5874 5874 5874 5873 5873 5872 5872 5871 5870 5870 5869 5869 5869 5868 5868 5869 5869 5869 5870 5870 5869
5791 5793 5795 5797 5800 5802 5804 5806 5808 5811 5813 5815 5817 5819 5822 5823 5825 5827 5829 5830 5832 5834 5836 5838 5840 5841 5843 5845 5846 5847 5849 5850 5851 5852 5853 5854 5856 5857 5858 5859 5860 5861 5862 5863 5864 5865 5867 5868 5868 5869 5869 5870 5871 5871 5872 5872 5872 5872 5873 5873 5873 5873 5873 5873 5873 5873 5873 5872 5872 5872 5872 5871 5870 5870 5870 5869 5869 5868 5868 5868 5868 5867 5867 5867 5868 5868 5868 5868
5788 5790 5792 5794 5796 5798 5800 5803 5805 5807 5810 5812 5814 5816 5819 5821 5823 5824 5826 5828 5830 5832 5834 5835 5837 5839 5841 5843 5844 5845 5847 5849 5850 5851 5852 5853 5854 5855 5857 5858 5859 5860 5861 5862 5863 5864 5865 5866 5867 5867 5868 5868 5869 5870 5870 5870 5870 5871 5871 5871 5871 5871 5872 5872 5872 5872 5872 5871 5871 5871 5870 5870 5869 5869 5868 5868 5868 5867 5867 5867 5867 5866 5866 5866 5866 5866 5866 5866
5785 5787 5789 5791 5793 5795 5797 5799 5801 5804 5806 5808 5811 5813 5816 5818 5820 5822 5824 5825 5827 5829 5831 5833 5835 5837 5839 5841 5842 5843 5845 5847 5848 5849 5851 5852 5853 5854 5855 5856 5857 5859 5860 5861 5862 5863 5864 5865 5866 5866 5866 5867 5867 5868 5868 5868 5868 5869 5869 5869 5869 5869 5869 5870 5870 5871 5870 5870 5869 5869 5869 5869 5868 5867 5866 5866 5866 5866 5866 5866 5866 5865 5865 5864 5864 5864 5864 5864
5781 5784 5786 5788 5790 5792 5794 5796 5798 5800 5802 5805 5807 5810 5812 5814 5817 5819 5821 5823 5825 5827 5829 5830 5832 5835 5837 5838 5840 5841 5843 5845 5846 5847 5849 5850 5851 5852 5853 5854 5855 5857 5858 5859 5860 5861 5862 5863 5864 5864 5864 5865 5865 5866 5866 5867 5867 5867 5867 5867 5867 5867 5867 5867 5868 5869 5869 5868 5868 5868 5868 5867 5867 5866 5864 5864 5865 5865 5865 5864 5864 5864 5864 5863 5863 5863 5863 5862
5778 5780 5782 5785 5787 5789 5791 5793 5795 5797 5800 5802 5804 5806 5809 5811 5813 5815 5818 5820 5822 5824 5826 5828 5830 5832 5834 5836 5838 5839 5841 5843 5844 5845 5847 5848 5849 5850 5851 5853 5854 5855 5856 5857 5858 5859 5860 5861 5862 5862 5863 5863 5864 5864 5865 5865 5865 5865 5865 5865 5865 5865 5865 5865 5865 5866 5866 5866 5866 5866 5866 5866 5865 5864 5863 5863 5863 5863 5863 5863 5862 5862 5862 5862 5862 5862 5861 5861
5774 5777 5779 5781 5783 5785 5787 5790 5792 5794 5797 5799 5801 5803 5805 5807 5809 5812 5814 5816 5819 5821 5823 5825 5827 5829 5831 5834 5835 5837 5839 5840 5842 5843 5845 5846 5847 5848 5850 5851 5852 5853 5854 5855 5856 5857 5858 5859 5860 5860 5861 5861 5862 5862 5863 5863 5863 5864 5863 5863 5863 5863 5863 5863 5863 5864 5864 5864 5864 5864 5864 5864 5862 5862 5861 5861 5861 5861 5861 5861 5861 5860 5860 5860 5860 5860 5860 5859
5770 5772 5775 5777 5780 5782 5784 5786 5788 5791 5793 5796 5798 5800 5802 5804 5806 5808 5810 5813 5815 5817 5820 5822 5824 5826 5829 5831 5832 5834 5836 5838 5840 5841 5842 5844 5845 5846 5847 5848 5850 5851 5852 5853 5854 5855 5856 5857 5858 5859 5859 5860 5860 5861 5861 5861 5862 5862 5862 5861 5861 5861 5861 5862 5862 5862 5862 5861 5861 5861 5863 5862 5860 5860 5860 5859 5859 5859 5859 5859 5859 5859 5858 5858 5858 5858 5858 5857
5766 5768 5771 5773 5776 5778 5780 5782 5785 5787 5790 5792 5794 5797 5799 5801 5803 5805 5807 5809 5811 5814 5816 5818 5821 5823 5825 5828 5830 5832 5834 5835 5837 5838 5840 5842 5843 5844 5845 5846 5847 5848 5850 5851 5852 5853 5854 5855 5856 5857 5857 5858 5858 5858 5859 5859 5859 5859 5859 5859 5859 5860 5860 5860 5860 5860 5859 5859 5859 5859 5861 5861 5858 5857 5858 5857 5857 5857 5857 5857 5856 5856 5856 5856 5856 5856 5855 5855
5762 5765 5767 5769 5771 5774 5776 5778 5781 5783 5786 5788 5790 5792 5795 5797 5799 5801 5803 5806 5808 5810 5812 5815 5817 5819 5822 5824 5826 5829 5831 5832 5834 5836 5837 5839 5840 5841 5843 5844 5845 5846 5847 5848 5849 5851 5851 5852 5853 5854 5855 5855 5856 5856 5857 5857 5857 5857 5857 5857 5857 5858 5858 5858 5858 5858 5857 5857 5857 5856 5858 5859 5857 5855 5855 5856 5855 5855 5855 5854 5854 5854 5854 5853 5853 5853 5852 5852
5759 5761 5763 5765 5767 5770 5772 5774 5777 5779 5781 5783 5786 5788 5790 5793 5795 5798 5800 5802 5805 5807 5809 5811 5813 5816 5818 5821 5823 5825 5828 5829 5831 5832 5834 5835 5837 5839 5840 5841 5842 5843 5845 5846 5847 5848 5849 5850 5851 5852 5853 5853 5854 5854 5854 5854 5855 5854 5854 5855 5856 5856 5856 5856 5856 5856 5855 5855 5855 5854 5855 5857 5856 5853 5853 5853 5853 5853 5852 5852 5852 5852 5851 5851 5850 5850 5850 5849
5755 5758 5760 5762 5763 5766 5768 5770 5773 5775 5777 5779 5781 5784 5786 5789 5791 5793 5796 5799 5801 5803 5806 5807 5810 5812 5814 5817 5820 5821 5824 5826 5827 5829 5830 5832 5834 5836 5837 5838 5839 5841 5842 5843 5844 5845 5846 5847 5848 5849 5850 5851 5852 5851 5851 5852 5852 5852 5853 5854 5854 5854 5854 5854 5853 5853 5852 5852 5852 5852 5852 5854 5854 5852 5851 5851 5850 5850 5850 5850 5849 5849 5849 5848 5847 5847 5847 5847
5751 5754 5756 5758 5760 5762 5764 5766 5768 5771 5773 5775 5777 5780 5782 5785 5787 5790 5792 5795 5797 5800 5802 5804 5806 5808 5811 5814 5816 5817 5820 5822 5824 5825 5827 5829 5831 5832 5834 5835 5836 5838 5839 5840 5841 5842 5844 5845 5846 5847 5848 5848 5848 5848 5849 5850 5850 5850 5851 5851 5851 5852 5851 5852 5851 5850 5849 5849 5849 5849 5850 5852 5851 5850 5849 5848 5848 5848 5848 5847 5847 5847 5846 5845 5845 5845 5844 5844
5747 5750 5752 5754 5757 5758 5760 5762 5764 5767 5769 5771 5773 5776 5778 5781 5783 5786 5788 5791 5793 5795 5797 5799 5801 5804 5807 5810 5812 5813 5816 5818 5820 5821 5823 5825 5827 5829 5830 5831 5833 5834 5836 5837 5838 5839 5841 5842 5843 5844 5845 5845 5845 5846 5847 5848 5848 5848 5848 5848 5849 5849 5849 5849 5848 5847 5847 5846 5846 5846 5846 5848 5849 5849 5846 5845 5845 5846 5845 5844 5844 5843 5843 5843 5842 5842 5842 5842
5743 5746 5748 5750 5753 5755 5757 5759 5761 5763 5765 5767 5769 5771 5774 5776 5779 5781 5783 5786 5788 5790 5792 5794 5797 5800 5803 5805 5807 5809 5812 5814 5816 5817 5819 5822 5823 5825 5826 5828 5829 5831 5832 5833 5834 5836 5837 5839 5841 5841 5841 5841 5842 5843 5844 5845 5845 5845 5845 5845 5846 5846 5847 5846 5844 5844 5843 5842 5843 5843 5843 5845 5847 5847 5845 5843 5843 5844 5843 5841 5841 5841 5840 5840 5840 5840 5839 5839
5738 5741 5744 5746 5749 5751 5753 5755 5758 5760 5761 5763 5765 5767 5770 5772 5773 5775 5778 5780 5782 5784 5787 5790 5793 5796 5798 5801 5803 5806 5808 5810 5812 5814 5816 5818 5819 5821 5823 5824 5825 5827 5828 5829 5831 5832 5834 5836 5838 5838 5837 5838 5840 5840 5841 5842 5842 5842 5842 5842 5843 5843 5843 5842 5841 5841 5839 5838 5840 5840 5839 5842 5844 5844 5844 5842 5840 5841 5840 5839 5838 5838 5837 5837 5837 5837 5836 5836
5733 5736 5739 5741 5744 5747 5749 5752 5754 5756 5758 5760 5762 5764 5765 5766 5768 5770 5772 5773 5776 5779 5781 5785 5789 5792 5794 5796 5799 5802 5804 5806 5808 5810 5812 5814 5815 5817 5818 5820 5821 5822 5824 5825 5827 5829 5831 5833 5834 5834 5834 5836 5836 5837 5838 5838 5839 5839 5839 5839 5839 5839 5839 5839 5838 5837 5836 5835 5836 5836 5835 5838 5841 5841 5841 5839 5838 5838 5837 5836 5836 5835 5835 5834 5834 5833 5832 5832
5729 5732 5734 5737 5740 5742 5745 5748 5751 5753 5755 5756 5758 5759 5760 5762 5763 5765 5766 5767 5770 5773 5776 5780 5784 5786 5789 5792 5795 5798 5800 5802 5804 5805 5807 5809 5811 5812 5814 5815 5816 5818 5820 5822 5824 5825 5827 5829 5830 5830 5831 5832 5832 5833 5834 5835 5836 5836 5836 5836 5836 5836 5835 5835 5835 5834 5833 5831 5831 5831 5829 5833 5838 5838 5838 5836 5834 5835 5834 5833 5833 5833 5832 5831 5830 5830 5829 5829
5724 5727 5729 5732 5734 5737 5741 5744 5747 5750 5750 5752 5754 5754 5755 5758 5759 5760 5760 5761 5763 5768 5772 5774 5778 5782 5786 5788 5790 5793 5795 5797 5799 5801 5803 5805 5806 5807 5810 5811 5812 5814 5817 5818 5819 5821 5824 5825 5826 5827 5828 5828 5829 5830 5831 5831 5832 5832 5832 5832 5832 5832 5831 5831 5831 5829 5829 5828 5828 5827 5823 5828 5836 5835 5835 5834 5831 5831 5831 5830 5830 5829 5828 5828 5827 5827 5826 5825
5718 5721 5724 5727 5729 5733 5736 5739 5744 5745 5745 5748 5749 5749 5751 5754 5755 5756 5756 5754 5758 5764 5767 5770 5773 5777 5780 5782 5786 5789 5791 5793 5796 5797 5799 5801 5802 5803 5805 5807 5808 5811 5813 5813 5815 5817 5820 5821 5822 5823 5823 5825 5826 5826 5827 5827 5827 5828 5829 5829 5828 5828 5827 5827 5826 5825 5824 5824 5825 5824 5817 5820 5831 5833 5832 5832 5829 5828 5828 5826 5827 5826 5824 5824 5824 5824 5823 5822
5712 5715 5718 5721 5724 5728 5731 5736 5739 5738 5741 5744 5743 5745 5748 5750 5751 5751 5751 5748 5751 5760 5764 5767 5769 5773 5776 5779 5783 5785 5784 5789 5793 5793 5794 5796 5797 5799 5800 5802 5805 5807 5808 5809 5810 5813 5817 5817 5817 5819 5820 5821 5821 5822 5823 5822 5823 5824 5825 5826 5824 5824 5824 5823 5822 5820 5819 5820 5821 5822 5816 5812 5822 5830 5830 5828 5827 5826 5825 5823 5822 5822 5821 5821 5820 5819 5819 5819
5706 5709 5712 5715 5719 5723 5727 5731 5732 5734 5737 5736 5737 5741 5743 5745 5745 5745 5746 5742 5745 5757 5762 5763 5766 5770 5774 5776 5778 5778 5779 5786 5790 5788 5790 5792 5793 5794 5796 5798 5801 5803 5804 5804 5805 5810 5812 5812 5813 5814 5815 5816 5818 5819 5818 5817 5818 5820 5821 5821 5820 5820 5820 5818 5818 5816 5815 5815 5814 5819 5817 5807 5809 5824 5828 5825 5825 5825 5823 5821 5819 5818 5818 5817 5816 5816 5815 5815
5701 5704 5707 5709 5713 5717 5721 5723 5726 5730 5730 5729 5733 5736 5737 5739 5738 5739 5739 5733 5741 5754 5757 5760 5764 5766 5769 5770 5772 5773 5775 5782 5783 5782 5786 5787 5787 5789 5791 5794 5796 5797 5798 5798 5801 5805 5806 5806 5808 5810 5810 5812 5814 5815 5813 5814 5815 5816 5816 5816 5816 5816 5815 5815 5814 5812 5811 5808 5808 5816 5817 5804 5800 5814 5822 5821 5823 5823 5820 5819 5817 5815 5814 5813 5812 5812 5811 5811
5696 5699 5701 5704 5707 5710 5714 5718 5723 5723 5722 5725 5729 5729 5732 5732 5731 5733 5729 5727 5740 5751 5752 5757 5761 5762 5764 5765 5767 5769 5771 5775 5776 5778 5781 5780 5781 5783 5785 5789 5790 5791 5792 5793 5797 5800 5800 5802 5804 5805 5807 5809 5810 5810 5809 5810 5810 5811 5812 5811 5812 5812 5811 5811 5809 5808 5806 5800 5804 5814 5814 5803 5794 5802 5816 5819 5819 5819 5817 5816 5814 5812 5811 5810 5809 5808 5808 5808
5690 5694 5696 5696 5699 5704 5708 5714 5717 5716 5718 5722 5722 5723 5726 5724 5725 5725 5718 5725 5742 5746 5746 5751 5755 5757 5759 5760 5762 5765 5766 5769 5771 5773 5774 5774 5777 5779 5781 5784 5785 5786 5787 5790 5793 5795 5795 5797 5799 5801 5804 5805 5805 5805 5805 5806 5806 5807 5808 5807 5808 5807 5807 5807 5804 5804 5800 5794 5803 5811 5809 5803 5789 5789 5809 5816 5813 5813 5813 5812 5811 5809 5808 5807 5805 5805 5804 5804
5683 5687 5689 5689 5692 5698 5703 5708 5711 5711 5713 5715 5715 5717 5716 5715 5718 5713 5712 5729 5742 5738 5739 5744 5748 5752 5754 5756 5758 5760 5761 5763 5765 5766 5767 5770 5772 5774 5777 5779 5780 5782 5782 5785 5789 5790 5791 5792 5794 5797 5799 5800 5800 5800 5800 5800 5801 5802 5803 5803 5803 5802 5801 5801 5799 5799 5795 5792 5801 5805 5803 5799 5785 5785 5803 5810 5807 5808 5807 5807 5807 5806 5805 5803 5801 5801 5800 5800
5675 5679 5682 5685 5688 5692 5698 5703 5705 5704 5704 5707 5708 5709 5709 5707 5704 5703 5715 5731 5731 5728 5733 5737 5742 5748 5749 5751 5752 5753 5755 5756 5758 5760 5761 5765 5766 5769 5773 5774 5776 5777 5777 5782 5785 5785 5785 5787 5789 5791 5793 5795 5795 5795 5796 5796 5798 5798 5799 5799 5798 5797 5796 5795 5794 5794 5791 5791 5795 5797 5795 5790 5783 5788 5799 5803 5803 5803 5801 5802 5803 5802 5801 5799 5798 5798 5797 5796
5668 5672 5675 5678 5682 5686 5692 5697 5698 5696 5697 5701 5701 5701 5700 5695 5692 5702 5719 5725 5721 5724 5730 5733 5738 5742 5741 5743 5744 5747 5749 5750 5753 5755 5755 5758 5759 5763 5767 5768 5771 5771 5773 5777 5778 5778 5780 5781 5784 5786 5788 5790 5790 5791 5792 5792 5793 5793 5794 5794 5793 5793 5791 5789 5790 5789 5788 5789 5788 5789 5788 5781 5781 5789 5795 5797 5799 5797 5796 5796 5796 5797 5797 5796 5795 5794 5793 5793
5661 5665 5668 5671 5676 5681 5685 5688 5690 5691 5692 5693 5693 5691 5688 5684 5692 5705 5714 5717 5719 5722 5724 5726 5730 5731 5732 5735 5738 5741 5743 5745 5748 5750 5749 5751 5753 5757 5761 5764 5766 5768 5770 5772 5771 5773 5774 5776 5781 5782 5782 5784 5785 5786 5787 5787 5787 5787 5789 5788 5787 5788 5787 5785 5786 5784 5782 5783 5782 5782 5780 5776 5780 5787 5789 5792 5793 5793 5792 5791 5790 5791 5792 5792 5792 5791 5790 5789
5654 5657 5661 5665 5670 5674 5678 5681 5683 5684 5684 5684 5684 5680 5676 5681 5694 5702 5706 5713 5716 5715 5717 5718 5718 5719 5723 5727 5731 5734 5736 5738 5742 5743 5743 5745 5748 5753 5757 5759 5762 5764 5765 5766 5767 5769 5768 5771 5777 5777 5776 5778 5778 5779 5780 5780 5780 5781 5782 5782 5782 5785 5784 5782 5781 5779 5778 5776 5775 5776 5774 5773 5778 5781 5783 5786 5787 5788 5788 5786 5785 5785 5786 5787 5787 5786 5786 5784
5646 5649 5654 5659 5665 5669 5670 5673 5676 5676 5675 5676 5672 5667 5671 5683 5693 5696 5700 5707 5707 5707 5711 5709 5708 5711 5716 5720 5724 5727 5729 5732 5734 5735 5736 5739 5743 5747 5751 5754 5757 5758 5761 5762 5763 5764 5763 5765 5770 5770 5769 5772 5772 5772 5773 5773 5774 5775 5775 5776 5778 5780 5778 5776 5775 5775 5774 5770 5769 5770 5769 5771 5773 5774 5777 5781 5781 5782 5783 5782 5781 5781 5781 5782 5781 5781 5781 5780
5639 5642 5647 5653 5659 5662 5662 5666 5669 5666 5665 5666 5661 5661 5670 5680 5686 5690 5694 5698 5698 5699 5701 5701 5701 5704 5708 5712 5716 5720 5723 5724 5725 5727 5730 5732 5734 5740 5746 5750 5751 5753 5757 5758 5757 5757 5757 5758 5762 5763 5763 5764 5765 5765 5766 5766 5767 5768 5769 5771 5773 5771 5770 5770 5769 5769 5770 5766 5764 5765 5764 5766 5767 5768 5772 5776 5775 5777 5777 5777 5777 5777 5777 5776 5776 5776 5775 5775
5632 5634 5639 5647 5652 5654 5656 5658 5658 5656 5656 5654 5652 5657 5665 5672 5680 5685 5687 5689 5690 5691 5692 5694 5696 5698 5700 5703 5707 5712 5713 5714 5717 5720 5722 5723 5725 5734 5741 5743 5745 5748 5752 5751 5748 5750 5751 5751 5753 5755 5755 5756 5758 5758 5758 5760 5761 5762 5763 5765 5764 5763 5764 5765 5763 5764 5764 5761 5760 5760 5758 5759 5762 5764 5767 5770 5770 5770 5771 5771 5773 5773 5773 5772 5771 5770 5770 5770
5623 5625 5632 5641 5644 5645 5646 5647 5647 5646 5644 5641 5644 5652 5660 5669 5677 5678 5679 5682 5683 5684 5687 5690 5692 5691 5692 5695 5700 5704 5703 5705 5710 5712 5714 5716 5720 5728 5734 5735 5738 5741 5743 5742 5740 5742 5744 5743 5744 5747 5748 5748 5749 5750 5752 5754 5755 5756 5756 5757 5757 5757 5757 5757 5758 5758 5758 5756 5755 5754 5753 5754 5758 5761 5762 5763 5764 5764 5764 5766 5768 5769 5769 5768 5767 5766 5765 5765
5613 5616 5626 5635 5635 5634 5636 5637 5636 5633 5631 5633 5640 5650 5658 5664 5668 5668 5672 5675 5675 5677 5683 5686 5686 5685 5686 5690 5693 5695 5696 5698 5702 5704 5706 5710 5715 5722 5726 5728 5730 5733 5734 5732 5731 5733 5735 5734 5736 5739 5740 5739 5741 5745 5748 5749 5749 5749 5750 5750 5750 5750 5750 5750 5751 5751 5751 5750 5749 5749 5749 5751 5755 5757 5756 5757 5758 5759 5759 5761 5763 5764 5764 5763 5763 5762 5761 5761
5603 5606 5618 5627 5624 5623 5625 5624 5623 5624 5625 5628 5635 5645 5652 5655 5658 5661 5666 5667 5667 5671 5675 5678 5679 5680 5682 5685 5686 5689 5690 5690 5693 5696 5698 5704 5710 5715 5720 5722 5723 5725 5724 5722 5722 5726 5727 5727 5729 5730 5731 5734 5737 5740 5742 5741 5741 5742 5742 5743 5743 5744 5743 5742 5742 5743 5744 5745 5746 5746 5745 5749 5752 5750 5750 5751 5751 5752 5755 5756 5756 5758 5758 5758 5758 5757 5756 5756
5591 5597 5612 5618 5613 5613 5613 5612 5616 5618 5617 5622 5633 5641 5643 5645 5651 5655 5658 5659 5661 5665 5667 5669 5672 5674 5676 5679 5681 5683 5683 5684 5686 5687 5690 5696 5703 5709 5713 5714 5714 5714 5715 5714 5717 5721 5721 5719 5720 5721 5724 5728 5730 5731 5732 5732 5733 5733 5734 5735 5736 5735 5735 5734 5735 5738 5740 5741 5744 5743 5741 5747 5751 5746 5744 5746 5744 5744 5749 5750 5749 5749 5750 5751 5752 5752 5751 5751
5581 5592 5605 5604 5601 5604 5601 5601 5608 5608 5609 5619 5630 5632 5632 5637 5643 5645 5648 5652 5655 5659 5661 5663 5666 5668 5671 5674 5675 5675 5676 5678 5679 5681 5685 5689 5694 5701 5704 5703 5704 5704 5705 5706 5710 5713 5711 5709 5711 5713 5717 5720 5721 5723 5725 5725 5725 5725 5726 5728 5728 5729 5730 5731 5732 5735 5735 5736 5740 5738 5735 5742 5748 5743 5739 5740 5738 5738 5742 5744 5742 5742 5742 5742 5744 5746 5746 5745
5575 5586 5591 5589 5590 5592 5588 5591 5600 5602 5606 5616 5620 5618 5624 5631 5632 5635 5641 5647 5651 5654 5655 5657 5661 5663 5665 5667 5667 5669 5671 5672 5672 5676 5680 5682 5686 5693 5694 5694 5695 5695 5696 5699 5702 5705 5702 5702 5705 5706 5708 5711 5713 5714 5716 5717 5716 5717 5720 5723 5724 5726 5727 5726 5728 5729 5727 5732 5735 5730 5728 5738 5743 5739 5735 5734 5734 5733 5733 5735 5736 5736 5736 5736 5736 5738 5739 5737
5567 5573 5576 5576 5579 5580 5580 5587 5595 5597 5601 5608 5607 5609 5617 5621 5622 5629 5636 5638 5642 5647 5648 5651 5654 5655 5657 5659 5660 5662 5664 5666 5668 5671 5673 5675 5680 5685 5685 5685 5686 5687 5690 5692 5694 5695 5693 5694 5697 5696 5698 5702 5704 5706 5709 5712 5712 5713 5717 5720 5721 5722 5721 5720 5722 5721 5719 5726 5726 5719 5723 5733 5735 5733 5732 5731 5730 5730 5726 5723 5726 5730 5731 5731 5729 5728 5730 5730
5555 5559 5564 5567 5569 5571 5575 5582 5586 5586 5592 5598 5598 5600 5607 5611 5616 5624 5627 5627 5633 5639 5642 5645 5647 5647 5649 5651 5653 5655 5658 5662 5663 5664 5667 5671 5675 5677 5677 5678 5678 5680 5683 5684 5685 5686 5684 5683 5686 5687 5688 5694 5701 5703 5705 5706 5706 5707 5711 5713 5713 5713 5713 5712 5712 5711 5713 5717 5715 5714 5721 5726 5727 5728 5727 5726 5726 5726 5722 5716 5717 5722 5723 5722 5720 5720 5722 5724
5543 5547 5555 5560 5560 5562 5568 5574 5576 5577 5584 5589 5588 5592 5599 5604 5610 5614 5614 5618 5626 5632 5634 5636 5637 5638 5641 5645 5649 5652 5655 5656 5656 5659 5663 5667 5668 5669 5669 5671 5672 5674 5675 5676 5677 5677 5675 5674 5677 5680 5681 5688 5697 5698 5696 5696 5698 5700 5703 5704 5704 5705 5704 5702 5701 5704 5709 5706 5705 5714 5717 5715 5720 5724 5721 5721 5720 5718 5717 5715 5714 5715 5713 5712 5713 5714 5715 5716
5532 5538 5548 5552 5551 5552 5559 5567 5570 5572 5577 5579 5579 5584 5590 5594 5599 5602 5604 5613 5620 5622 5623 5624 5627 5631 5638 5643 5644 5645 5648 5648 5649 5654 5660 5662 5661 5661 5662 5663 5665 5667 5668 5667 5668 5668 5667 5667 5671 5674 5676 5682 5690 5689 5686 5687 5690 5692 5693 5694 5696 5696 5695 5693 5695 5701 5702 5696 5699 5712 5710 5705 5715 5718 5714 5715 5715 5713 5713 5712 5709 5708 5706 5707 5708 5707 5708 5707
5523 5530 5539 5542 5540 5543 5551 5559 5563 5563 5567 5570 5570 5574 5579 5584 5589 5594 5599 5605 5608 5609 5611 5614 5622 5630 5635 5637 5636 5636 5639 5642 5645 5652 5655 5655 5655 5655 5656 5656 5658 5660 5661 5660 5661 5661 5660 5662 5666 5668 5669 5675 5682 5680 5678 5680 5681 5683 5685 5686 5688 5689 5688 5689 5691 5694 5693 5688 5695 5704 5699 5699 5709 5711 5709 5711 5709 5707 5707 5705 5704 5704 5703 5703 5702 5702 5702 5701
5515 5522 5531 5533 5531 5536 5543 5549 5551 5553 5557 5560 5560 5565 5572 5576 5582 5589 5592 5594 5596 5600 5603 5608 5619 5627 5629 5629 5627 5627 5633 5639 5643 5648 5648 5646 5648 5650 5650 5650 5652 5654 5654 5654 5655 5655 5655 5657 5660 5662 5662 5667 5674 5673 5670 5672 5673 5674 5676 5678 5681 5683 5683 5683 5685 5687 5685 5683 5690 5694 5690 5694 5703 5705 5704 5703 5700 5698 5699 5699 5699 5700 5698 5697 5697 5697 5697 5696
5508 5514 5521 5522 5521 5527 5533 5537 5541 5544 5547 5549 5552 5558 5565 5568 5576 5584 5585 5585 5589 5592 5597 5604 5614 5619 5619 5618 5617 5621 5632 5638 5639 5640 5640 5639 5641 5643 5643 5644 5646 5647 5648 5648 5648 5649 5649 5651 5655 5656 5654 5659 5667 5665 5662 5665 5665 5663 5666 5672 5677 5678 5677 5677 5679 5682 5680 5680 5684 5684 5682 5690 5699 5698 5695 5694 5692 5691 5692 5693 5693 5692 5692 5691 5691 5691 5691 5691
5500 5504 5509 5509 5509 5516 5523 5526 5531 5533 5535 5541 5548 5554 5559 5564 5573 5577 5573 5574 5580 5584 5589 5597 5605 5607 5605 5606 5612 5623 5632 5633 5630 5631 5632 5632 5633 5635 5635 5637 5639 5640 5641 5642 5642 5643 5645 5645 5648 5649 5648 5653 5659 5656 5655 5658 5653 5651 5660 5671 5674 5672 5670 5671 5673 5676 5675 5674 5674 5673 5676 5685 5691 5689 5686 5686 5687 5686 5687 5687 5686 5686 5686 5685 5684 5685 5685 5685